Regional Weather Roundup
Issued by NWS

Home | Current Version | Previous Version | Graphics & Text | Print | Product List | Glossary On
Versions: 1 2 3 4 5 6 7 8 9 10 11 12 13 14 15 16 17 18 19 20 21 22 23 24 25 26 27 28 29 30 31 32 33 34 35 36 37 38 39 40 41 42 43 44 45 46 47 48 49 50
000
ASUS44 KMEG 240000
RWRTN
TENNESSEE HOURLY STATE WEATHER ROUNDUP
NATIONAL WEATHER SERVICE MEMPHIS TN
600 PM CST SUN NOV 23 2014

TNZ002-004-019-021-049-052-054-088>092-240100-
WEST TENNESSEE

CITY           SKY/WX    TMP DP  RH WIND       PRES   REMARKS
MEMPHIS INTL   CLOUDY    60  57  89 SW12      29.42R
NWS MEMPHIS      N/A     60 N/A N/A MISG        N/A
JACKSON        LGT RAIN  61  59  93 SW8       29.35R
DYERSBURG      CLOUDY    57  46  67 SW7       29.37R
UNION CITY     CLOUDY    55  55 100 S8        29.31S
PARIS          CLOUDY    57  55  94 S8        29.33S
LEXINGTON      CLOUDY    59  57  94 S8        29.33S
SAVANNAH       CLOUDY    61  61 100 SW21      29.39R
$$

TNZ008-025-027-028-033-062-065-066-240100-
NORTH MIDDLE TENNESSEE

CITY           SKY/WX    TMP DP  RH WIND       PRES   REMARKS
NASHVILLE      CLOUDY    59  56  89 S16G29    29.41F
CLARKSVILLE    LGT RAIN  59  57  93 S15G21    29.35F
SMYRNA         MOCLDY    59  55  88 S13       29.43F
COOKEVILLE     CLOUDY    57  55  94 S14       29.48F
CROSSVILLE     CLOUDY    58  53  84 S12G26    29.54R
$$

TNZ061-075-076-078-094-096-097-240100-
SOUTH MIDDLE TENNESSEE

CITY           SKY/WX    TMP DP  RH WIND       PRES   REMARKS
FAYETTEVILLE   MOCLDY    55  55 100 N16       29.48S
TULLAHOMA      CLOUDY    57  54  88 S12       29.49F
WINCHESTER     MOCLDY    57  54  88 S14       29.52R
SHELBYVILLE    MOCLDY    61  55  82 S17       29.46F
$$

TNZ017-018-042-046-047-240100-
NORTHEAST TENNESSEE

CITY           SKY/WX    TMP DP  RH WIND       PRES   REMARKS
TRI CITIES     CLOUDY    57  52  83 E6        29.69F
ELIZABETHTON   PTCLDY    54  48  82 NE13      29.69F
$$

TNZ012-013-036-069-073-074-240100-
CENTRAL EAST TENNESSEE

CITY           SKY/WX    TMP DP  RH WIND       PRES   REMARKS
KNOXVILLE      LGT RAIN  59  55  87 SE9G29    29.53F
OAK RIDGE      LGT RAIN  54  52  93 NE3       29.58F
GATLINBURG     CLOUDY    54  52  94 SE5       29.60R
MORRISTOWN     MOCLDY    55  52  88 E10       29.60F
$$

TNZ083-085-099-240100-
SOUTHEAST TENNESSEE

CITY           SKY/WX    TMP DP  RH WIND       PRES   REMARKS
CHATTANOOGA    CLOUDY    57  54  89 S10       29.59R
$$

SKY/WX REPORTED AS FAIR MEANS FEW OR NO CLOUDS BELOW
12 THOUSAND FEET.



USA.gov is the U.S. government's official web portal to all federal, state and local government web resources and services.